User: anonymous   Login
Location: Unspecified
(0.0000°N, 0.0000°E)
Time: 04:52:34
(UTC+00:00)
Language:

CANX-2 - Orbit

View from above orbital plane
View from above orbital plane
View from above satellite
View from above satellite

Ground track
Ground track

The orbit data is extracted from the following two-line orbital elements,

1 32790U 08021H   24170.62075133  .00003918  00000-0  36027-3 0  9995
2 32790  97.7660 134.6817 0011274 337.9645  22.1089 14.95318682875504
Epoch (UTC): 18 June 2024 14:53:52
Eccentricity: 0.0011274
inclination: 97.7660°
perigee height: 573 km
apogee height: 589 km
right ascension of ascending node: 134.6817°
argument of perigee: 337.9645°
revolutions per day: 14.95318682
mean anomaly at epoch: 22.1089°
orbit number at epoch: 87550

The dashed part of the orbit path shows where the satellite is in the earth's shadow,  

DLR